Terminal Aerodrome Forecast
Issued by NWS Blacksburg, VA

Home | Current Version | Previous Version | Text Only | Print | Product List | Glossary On
Versions: 1 2 3 4 5 6 7 8 9 10 11 12 13 14 15 16 17 18 19 20 21 22 23 24 25 26 27 28 29 30 31 32 33 34 35 36 37 38 39 40 41 42 43
000
FTUS41 KRNK 030522
TAFBLF
TAF
KBLF 030522Z 0306/0406 27006KT P6SM VCSH SCT015 BKN035
      TEMPO 0309/0312 4SM BR BKN015
     FM031300 27005KT 5SM BR SCT010 BKN080
     FM031800 29008KT P6SM BKN045
     FM040100 00000KT P6SM BKN050=

USA.gov is the U.S. government's official web portal to all federal, state and local government web resources and services.